Regional Weather Roundup
Issued by NWS

Home | Current Version | Previous Version | Graphics & Text | Print | Product List | Glossary On
Versions: 1 2 3 4 5 6 7 8 9 10 11 12 13 14 15 16 17 18 19 20 21 22 23 24 25 26 27 28
000
ASUS45 KPSR 310310
RWRAZ

ARIZONA HOURLY REGIONAL WEATHER ROUNDUP
NATIONAL WEATHER SERVICE PHOENIX AZ
800 PM MST TUE AUG 30 2016

NOTE: FAIR INDICATES FEW OR NO CLOUDS BELOW 12,000 FEET WITH NO
SIGNIFICANT WEATHER AND/OR OBSTRUCTIONS TO VISIBILITY.

AZZ001>003-036-310400-
NORTHWEST ARIZONA

CITY           SKY/WX    TMP DP  RH WIND       PRES   REMARKS
BULLHEAD CITY  CLEAR    100  45  15 S3        29.72S
KINGMAN        CLEAR     81  47  30 S9        29.98R
$$

AZZ004>008-015-016-018-310400-
NORTH CENTRAL ARIZONA

CITY           SKY/WX    TMP DP  RH WIND       PRES   REMARKS
GRAND CANYON   CLEAR     61  46  57 CALM      30.28R
PRESCOTT       PTCLDY    74  51  44 SW6       30.13R
FLAGSTAFF      CLEAR     59  46  62 CALM      30.29R
PAYSON         CLEAR     73  50  43 NE5       30.17R
PAGE           CLEAR     81  32  17 CALM      30.07R
$$

AZZ009>014-017-310400-
NORTHEAST ARIZONA

CITY           SKY/WX    TMP DP  RH WIND       PRES   REMARKS
WINSLOW        MOCLDY    82  42  24 N5        30.12R
SAINT JOHNS    CLEAR     72  43  35 E6        30.18R
WINDOW ROCK    CLEAR     68  41  37 E6        30.29R
SHOW LOW       CLEAR     64  48  55 S7        30.26R
$$

AZZ023-310400-
GREATER PHOENIX AREA

CITY           SKY/WX    TMP DP  RH WIND       PRES   REMARKS
PHOENIX        PTCLDY    97  56  25 E10       29.77R
BUCKEYE        PTCLDY    95  52  23 E8        29.78R
GLENDALE       PTCLDY    95  57  28 NE6       29.78S
LUKE AFB       PTCLDY    98  54  22 E8        29.76R
DEER VALLEY    CLEAR     94  51  23 NE6       29.80R
SCOTTSDALE     CLEAR     96  50  20 N3        29.82R
MESA-FALCON      N/A    N/A N/A N/A E7        29.78R
MESA-GATEWAY   CLEAR     90  55  31 SE9       29.82R
CHANDLER       PTCLDY    93  52  24 E10       29.79R
$$

AZZ027-028-310400-
SOUTHWEST MARICOPA COUNTY AND PINAL COUNTY

CITY           SKY/WX    TMP DP  RH WIND       PRES   REMARKS
CASA GRANDE    CLEAR     95  50  21 NE7       29.84R
GILA BEND      PTCLDY   100  51  18 E17       29.74R
$$

AZZ503-504-507>509-310400-
SOUTHEAST ARIZONA

CITY           SKY/WX    TMP DP  RH WIND       PRES   REMARKS
TUCSON         CLEAR     93  49  22 NE9       29.92R
DAVIS-MONTHAN  CLEAR     90  49  24 NE12      29.91R
RYAN FIELD     CLEAR     88  50  27 NE5       29.90R
NOGALES        CLEAR     75  60  59 E8        30.02R
SIERRA VISTA   PTCLDY    79  51  37 SE10      30.11R
DOUGLAS        CLEAR     78  54  43 E15G22    30.08R
SAFFORD        CLEAR     82  52  35 E6        29.99R
$$

AZZ020-021-025-026-031-310400-
SOUTHWEST ARIZONA

CITY           SKY/WX    TMP DP  RH WIND       PRES   REMARKS
YUMA           PTCLDY   103  50  17 CALM      29.67R HX 100
$$

CAZ031-033-041-043-047-048-061-310400-
SOUTHERN CALIFORNIA

CITY           SKY/WX    TMP DP  RH WIND       PRES   REMARKS
DOWNTOWN L.A.  CLEAR     73  65  75 CALM      29.78R
L.A. AIRPORT   PTCLDY    72  62  71 SW5       29.79R
SAN DIEGO      PTCLDY    70  65  84 S6        29.83R
BURBANK        CLEAR     78  63  59 SE12G20   29.79R
ONTARIO        PTCLDY    82  59  45 SW8       29.82R
RIVERSIDE      CLEAR     86  56  35 VRB6      29.80R
PALM SPRINGS   PTCLDY   106  36   9 NW13      29.70R
EL CENTRO NAS  CLEAR    102  40  12 SE5       29.66R
IMPERIAL       PTCLDY   106  49  14 SE9       29.64R HX 103
BLYTHE         CLEAR    104  41  11 CALM      29.69R
NEEDLES        CLEAR    102  46  15 W8        29.74R
$$

NVZ020-UTZ003-310400-
SOUTHERN NEVADA-UTAH

CITY           SKY/WX    TMP DP  RH WIND       PRES   REMARKS
LAS VEGAS      PTCLDY    99  35  10 S7        29.82S
SALT LAKE CITY MOCLDY    81  43  26 N9        30.02R
$$

NMZ009-TXZ055-310400-
NEW MEXICO-WEST TEXAS

CITY           SKY/WX    TMP DP  RH WIND       PRES   REMARKS
ALBUQUERQUE    PTCLDY    70  55  59 E22       30.25R
EL PASO        MOCLDY    72  63  73 E10       30.15R
$$


........................KEY........................
SKY/WX - SKY CONDITION/WEATHER
TMP    - TEMPERATURE IN FAHRENHEIT
DP     - DEW POINT IN FAHRENHEIT
RH     - RELATIVE HUMIDITY IN PERCENT
WIND   - DIRECTION AND SPEED IN MILES PER HOUR (MPH)
VRB    - VARIABLE WIND DIRECTION
PRES   - MEAN SEA LEVEL PRESSURE IN INCHES OF MERCURY
         F - FALLING PRESSURE   R - RISING PRESSURE
         S - STEADY PRESSURE
VSB    - VISIBILITY IN MILES
HX     - HEAT INDEX IN FAHRENHEIT
WCI    - WIND CHILL INDEX IN FAHRENHEIT
TC     - TEMPERATURE IN CELSIUS WHICH IS ALSO KNOWN AS
         TEMPERATURE IN CENTIGRADE
AFB    - AIR FORCE BASE
         LUKE AFB IS LUKE AIR FORCE BASE
         DAVIS-MONTHAN IS DAVIS-MONTHAN AIR FORCE BASE
NAS    - NAVAL AIR STATION
         EL CENTRO NAS IS EL CENTRO NAVAL AIR STATION
N/A    - NOT AVAILABLE





USA.gov is the U.S. government's official web portal to all federal, state and local government web resources and services.